period_start,C,m1,H,J0,J1,J2,J3,J4,J5,JA,JB,JC,JD,JJ,JK,JN,#
2016-04-28 00:00:06,0.06,0.60,0.00,25.12,28.47,31.36,14.38,48.94,1020.92,2031.59,3246.61,2972.87,3355.37,600.10,594.35,11.98,0000 0000 0000 0000 000000
2016-04-28 00:05:07,0.12,0.60,0.00,25.15,28.46,31.37,14.42,48.97,1020.86,2031.62,3244.30,2971.46,3353.61,599.52,593.80,12.03,0000 0000 0000 0000 000000
2016-04-28 00:10:09,0.07,0.61,0.00,25.12,28.45,31.34,14.39,48.99,1020.74,2031.43,3241.96,2970.02,3351.89,600.08,594.27,12.08,0000 0000 0000 0000 000000
2016-04-28 00:15:11,0.09,0.61,0.00,25.10,28.45,31.33,14.42,48.94,1020.67,2031.65,3240.43,2968.99,3350.68,599.93,594.19,12.13,0000 0000 0000 0000 000000
2016-04-28 00:20:12,0.04,0.61,0.00,25.11,28.45,31.32,14.50,49.01,1020.82,2031.57,3238.99,2968.09,3349.61,599.82,594.16,12.18,0000 0000 0000 0000 000000
2016-04-28 00:25:13,0.05,0.62,0.00,25.13,28.45,31.35,14.43,49.07,1020.74,2031.44,3237.72,2967.32,3348.55,599.80,594.02,12.23,0000 0000 0000 0000 000000
2016-04-28 00:30:15,0.05,0.62,0.00,25.15,28.45,31.36,14.46,49.03,1020.58,2031.28,3236.50,2966.46,3347.54,599.97,594.07,12.28,0000 0000 0000 0000 000000
2016-04-28 00:35:16,0.05,0.62,0.00,25.13,28.45,31.34,14.41,49.02,1020.57,2031.15,3234.98,2965.52,3346.39,599.47,593.64,12.33,0000 0000 0000 0000 000000
2016-04-28 00:40:17,0.06,0.62,0.00,25.13,28.45,31.33,14.47,49.10,1020.56,2031.09,3233.62,2964.64,3345.34,599.69,593.73,12.38,0000 0000 0000 0000 000000
2016-04-28 00:45:19,0.04,0.63,0.00,25.16,28.46,31.35,14.44,48.90,1020.55,2031.06,3232.40,2963.86,3344.30,600.02,594.05,12.43,0000 0000 0000 0000 000000
2016-04-28 00:50:20,0.06,0.63,0.00,25.17,28.46,31.35,14.38,48.94,1020.53,2031.05,3230.97,2963.00,3343.21,599.60,593.61,12.48,0000 0000 0000 0000 000000
2016-04-28 00:55:21,0.06,0.63,0.00,25.17,28.47,31.35,14.39,48.91,1020.52,2031.03,3229.62,2962.12,3342.21,599.95,593.93,12.53,0000 0000 0000 0000 000000
2016-04-28 01:00:22,0.06,0.64,0.00,25.16,28.47,31.35,14.40,48.92,1020.52,2031.04,3228.39,2961.33,3341.22,599.72,593.93,12.58,0000 0000 0000 0000 000000
2016-04-28 01:05:24,0.05,0.64,0.00,25.17,28.47,31.37,14.42,48.88,1020.52,2031.03,3227.11,2960.59,3340.27,600.00,593.93,12.63,0000 0000 0000 0000 000000
2016-04-28 01:10:25,0.05,0.64,0.00,25.14,28.47,31.35,14.54,48.88,1020.52,2031.03,3225.85,2959.85,3339.30,600.26,594.29,12.68,0000 0000 0000 0000 000000
2016-04-28 01:15:27,0.05,0.64,0.00,25.14,28.47,31.35,14.43,49.02,1020.52,2031.02,3224.65,2959.04,3338.32,600.26,594.24,12.73,0000 0000 0000 0000 000000
2016-04-28 01:20:28,0.06,0.65,0.00,25.16,28.47,31.36,14.42,49.05,1020.52,2031.04,3223.55,2958.27,3337.45,599.87,593.79,12.78,0000 0000 0000 0000 000000
2016-04-28 01:25:29,0.04,0.65,0.00,25.20,28.49,31.36,14.40,48.83,1020.47,2031.05,3222.38,2957.67,3336.58,600.25,594.16,12.83,0000 0000 0000 0000 000000
2016-04-28 01:30:30,0.04,0.65,0.00,25.18,28.50,31.35,14.44,49.23,1020.46,2031.03,3221.19,2956.88,3335.60,599.94,593.86,12.88,0000 0000 0000 0000 000000
2016-04-28 01:35:31,0.06,0.66,0.00,25.17,28.50,31.36,14.40,48.97,1020.24,2031.01,3219.91,2956.04,3334.57,600.06,593.91,12.93,0000 0000 0000 0000 000000
2016-04-28 01:40:33,0.06,0.66,0.00,25.20,28.50,31.35,14.40,48.97,1020.06,2031.02,3218.78,2955.25,3333.70,600.06,593.71,12.98,0000 0000 0000 0000 000000
2016-04-28 01:45:34,0.05,0.66,0.00,25.22,28.51,31.38,14.43,48.99,1020.04,2031.00,3217.64,2954.52,3332.78,600.25,593.85,13.03,0000 0000 0000 0000 000000
2016-04-28 01:50:36,0.04,0.66,0.00,25.22,28.52,31.37,14.37,48.89,1020.04,2031.00,3216.38,2953.85,3331.87,599.66,593.31,13.09,0000 0000 0000 0000 000000
2016-04-28 01:55:37,0.05,0.67,0.00,25.23,28.52,31.38,14.49,49.15,1020.04,2031.00,3215.26,2953.05,3330.92,600.33,593.84,13.14,0000 0000 0000 0000 000000
2016-04-28 02:00:39,0.05,0.67,0.00,25.27,28.52,31.38,14.37,49.18,1020.04,2031.00,3214.11,2952.23,3330.00,599.87,593.39,13.19,0000 0000 0000 0000 000000
2016-04-28 02:05:40,0.05,0.67,0.00,25.27,28.54,31.40,14.46,49.06,1020.04,2031.00,3213.01,2951.52,3329.11,600.18,593.65,13.24,0000 0000 0000 0000 000000
2016-04-28 02:10:41,0.05,0.68,0.00,25.27,28.55,31.39,14.39,48.93,1020.04,2031.00,3211.84,2950.77,3328.17,599.92,593.34,13.29,0000 0000 0000 0000 000000
2016-04-28 02:15:43,0.05,0.68,0.00,25.28,28.55,31.38,14.47,49.17,1020.02,2031.00,3210.47,2949.99,3327.17,600.20,593.67,13.34,0000 0000 0000 0000 000000
2016-04-28 02:20:44,0.05,0.68,0.00,25.32,28.57,31.39,14.40,49.26,1020.01,2030.99,3209.51,2949.16,3326.40,600.06,593.34,13.39,0000 0000 0000 0000 000000
2016-04-28 02:25:45,0.05,0.68,0.00,25.35,28.57,31.40,14.40,49.03,1019.95,2030.98,3208.51,2948.51,3325.56,599.79,593.08,13.44,0000 0000 0000 0000 000000
2016-04-28 02:30:46,0.06,0.69,0.00,25.35,28.60,31.40,14.35,49.07,1019.80,2030.98,3207.27,2947.68,3324.52,600.01,593.22,13.49,0000 0000 0000 0000 000000
2016-04-28 02:35:47,0.03,0.69,0.00,25.35,28.60,31.41,14.42,49.17,1019.59,2030.96,3206.12,2946.99,3323.73,600.08,593.10,13.54,0000 0000 0000 0000 000000
2016-04-28 02:40:49,0.06,0.69,0.00,25.40,28.61,31.41,14.38,49.08,1019.56,2030.98,3205.01,2946.15,3322.82,600.08,593.06,13.59,0000 0000 0000 0000 000000
2016-04-28 02:45:50,0.05,0.69,0.00,25.46,28.62,31.42,14.41,48.98,1019.55,2030.95,3203.78,2945.46,3321.88,600.05,592.89,13.64,0000 0000 0000 0000 000000
2016-04-28 02:50:51,0.05,0.70,0.00,25.51,28.63,31.43,14.44,49.12,1019.55,2030.87,3202.62,2944.69,3320.90,599.95,592.64,13.69,0000 0000 0000 0000 000000
2016-04-28 02:55:52,0.02,0.70,0.00,25.54,28.65,31.45,14.35,48.52,1019.55,2030.64,3201.42,2943.99,3319.91,599.54,592.21,13.74,0000 0000 0000 0000 000000
2016-04-28 03:00:54,0.02,0.70,0.00,25.58,28.65,31.45,14.36,48.88,1019.55,2030.30,3200.27,2943.16,3318.93,600.15,592.69,13.79,0000 0000 0000 0000 000000
2016-04-28 03:05:55,0.05,0.70,0.00,25.62,28.67,31.46,14.40,49.02,1019.55,2030.16,3199.01,2942.36,3317.93,600.11,592.54,13.84,0000 0000 0000 0000 000000
2016-04-28 03:10:56,0.06,0.70,0.00,25.65,28.67,31.45,14.37,49.05,1019.55,2030.11,3197.74,2941.48,3316.96,599.51,591.84,13.89,0000 0000 0000 0000 000000
2016-04-28 03:15:58,0.06,0.71,0.00,25.67,28.68,31.48,14.36,48.70,1019.52,2030.07,3196.40,2940.64,3315.92,600.52,592.73,13.94,0000 0000 0000 0000 000000
2016-04-28 03:20:59,0.04,0.71,0.00,25.70,28.70,31.49,14.36,48.73,1019.51,2030.04,3195.11,2939.87,3314.91,599.80,592.15,13.99,0000 0000 0000 0000 000000
2016-04-28 03:26:01,0.06,0.71,0.00,25.70,28.70,31.49,14.34,48.98,1019.50,2030.03,3193.81,2938.98,3313.86,599.47,591.81,14.04,0000 0000 0000 0000 000000
2016-04-28 03:31:02,0.06,0.72,0.00,25.67,28.71,31.50,14.35,48.85,1019.45,2030.00,3192.57,2938.09,3312.81,599.77,592.16,14.09,0000 0000 0000 0000 000000
2016-04-28 03:36:03,0.06,0.72,0.00,25.63,28.72,31.50,14.38,48.80,1019.42,2030.00,3191.24,2937.22,3311.80,599.94,592.31,14.14,0000 0000 0000 0000 000000
2016-04-28 03:41:05,0.06,0.72,0.00,25.62,28.72,31.51,14.34,48.87,1019.28,2030.00,3189.84,2936.37,3310.78,599.89,592.24,14.19,0000 0000 0000 0000 000000
2016-04-28 03:46:06,0.06,0.73,0.00,25.62,28.73,31.52,14.38,48.77,1019.24,2030.00,3188.50,2935.56,3309.69,599.88,592.28,14.24,0000 0000 0000 0000 000000
2016-04-28 03:51:07,0.06,0.73,0.00,25.62,28.75,31.53,14.39,48.91,1019.17,2030.00,3187.12,2934.55,3308.58,599.97,592.30,14.29,0000 0000 0000 0000 000000
2016-04-28 03:56:08,0.06,0.73,0.00,25.62,28.75,31.52,14.43,49.04,1019.11,2030.00,3185.68,2933.70,3307.56,599.57,591.92,14.34,0000 0000 0000 0000 000000
2016-04-28 04:01:10,0.05,0.74,0.00,25.65,28.75,31.53,14.33,49.17,1019.07,2030.00,3184.28,2932.84,3306.48,599.78,591.99,14.39,0000 0000 0000 0000 000000
2016-04-28 04:06:11,0.05,0.74,0.00,25.65,28.77,31.54,14.37,49.00,1019.07,2029.99,3183.16,2932.03,3305.47,599.87,592.05,14.44,0000 0000 0000 0000 000000
2016-04-28 04:11:12,0.06,0.74,0.00,25.65,28.77,31.55,14.38,49.18,1019.08,2029.98,3181.87,2931.18,3304.51,600.26,592.41,14.49,0000 0000 0000 0000 000000
2016-04-28 04:16:13,0.06,0.75,0.00,25.65,28.78,31.55,14.38,49.11,1019.06,2029.99,3180.60,2930.37,3303.56,599.81,591.92,14.54,0000 0000 0000 0000 000000
2016-04-28 04:21:15,0.06,0.75,0.00,25.65,28.80,31.56,14.28,49.08,1019.06,2029.98,3179.36,2929.51,3302.51,600.16,592.33,14.59,0000 0000 0000 0000 000000
2016-04-28 04:26:16,0.05,0.75,0.00,25.66,28.80,31.58,14.44,49.09,1019.06,2029.98,3178.07,2928.76,3301.52,600.17,592.32,14.64,0000 0000 0000 0000 000000
2016-04-28 04:31:17,0.05,0.75,0.00,25.70,28.82,31.59,14.40,48.69,1019.06,2029.97,3176.83,2927.94,3300.52,600.55,592.70,14.69,0000 0000 0000 0000 000000
2016-04-28 04:36:19,0.06,0.76,0.00,25.70,28.82,31.59,14.40,49.08,1019.05,2029.92,3175.42,2926.98,3299.44,599.95,592.06,14.74,0000 0000 0000 0000 000000
2016-04-28 04:41:20,0.04,0.76,0.00,25.70,28.84,31.59,14.35,48.92,1019.05,2029.72,3174.07,2926.05,3298.32,599.99,592.02,14.79,0000 0000 0000 0000 000000
2016-04-28 04:46:21,0.04,0.76,0.00,25.73,28.85,31.60,14.36,49.00,1019.03,2029.54,3172.72,2925.16,3297.30,600.06,592.04,14.84,0000 0000 0000 0000 000000
2016-04-28 04:51:23,0.04,0.76,0.00,25.75,28.86,31.62,14.35,48.83,1019.02,2029.21,3171.56,2924.36,3296.30,600.63,592.54,14.89,0000 0000 0000 0000 000000
2016-04-28 04:56:24,0.04,0.77,0.00,25.75,28.87,31.62,14.31,48.77,1018.96,2029.11,3170.36,2923.60,3295.39,599.69,591.75,14.94,0000 0000 0000 0000 000000
2016-04-28 05:01:25,0.05,0.77,0.00,25.77,28.87,31.63,14.32,48.86,1018.71,2029.05,3169.11,2922.76,3294.25,599.43,591.18,14.99,0000 0000 0000 0000 000000
2016-04-28 05:06:27,0.05,0.77,0.00,25.78,28.89,31.62,14.33,48.58,1018.61,2029.02,3167.93,2921.93,3293.37,600.04,591.55,15.04,0000 0000 0000 0000 000000
2016-04-28 05:11:28,0.07,0.78,0.00,25.78,28.90,31.65,14.39,49.00,1018.60,2029.00,3166.53,2921.04,3292.28,600.52,592.06,15.09,0000 0000 0000 0000 000000
2016-04-28 05:16:29,0.06,0.78,0.00,25.80,28.90,31.64,14.43,49.07,1018.61,2029.00,3165.28,2920.16,3291.24,600.41,592.02,15.14,0000 0000 0000 0000 000000
2016-04-28 05:21:30,0.06,0.78,0.00,25.82,28.90,31.65,14.41,49.04,1018.58,2029.00,3164.09,2919.44,3290.30,600.15,591.71,15.19,0000 0000 0000 0000 000000
2016-04-28 05:26:31,0.06,0.78,0.00,25.82,28.91,31.65,14.37,49.15,1018.58,2029.00,3162.78,2918.60,3289.30,599.89,591.45,15.24,0000 0000 0000 0000 000000
2016-04-28 05:31:32,0.05,0.79,0.00,25.80,28.92,31.66,14.32,49.16,1018.59,2029.00,3161.61,2917.83,3288.32,599.70,591.24,15.29,0000 0000 0000 0000 000000
2016-04-28 05:36:34,0.05,0.79,0.00,25.82,28.92,31.67,14.36,48.97,1018.57,2029.00,3160.37,2917.02,3287.42,600.04,591.52,15.34,0000 0000 0000 0000 000000
2016-04-28 05:41:35,0.06,0.79,0.00,25.82,28.92,31.69,14.39,49.07,1018.57,2029.00,3159.03,2916.16,3286.39,599.98,591.56,15.40,0000 0000 0000 0000 000000
2016-04-28 05:46:36,0.07,0.80,0.00,25.84,28.92,31.67,14.37,49.16,1018.56,2029.00,3157.63,2915.28,3285.42,600.15,591.61,15.45,0000 0000 0000 0000 000000
2016-04-28 05:51:38,0.06,0.80,0.00,25.85,28.92,31.68,14.32,49.03,1018.46,2028.99,3156.41,2914.51,3284.41,599.97,591.33,15.50,0000 0000 0000 0000 000000
2016-04-28 05:56:39,0.06,0.80,0.00,25.87,28.92,31.69,14.39,49.16,1018.51,2028.99,3155.10,2913.67,3283.45,600.08,591.51,15.55,0000 0000 0000 0000 000000
2016-04-28 06:01:40,0.06,0.81,0.00,25.87,28.92,31.70,14.39,49.24,1018.49,2028.99,3153.69,2912.85,3282.47,600.25,591.71,15.60,0000 0000 0000 0000 000000
2016-04-28 06:06:41,0.05,0.81,0.00,25.87,28.92,31.70,14.29,48.91,1018.39,2028.99,3152.49,2912.02,3281.40,599.86,591.00,15.65,0000 0000 0000 0000 000000
2016-04-28 06:11:42,0.06,0.81,0.00,25.89,28.92,31.70,14.35,49.09,1018.36,2028.99,3151.34,2911.19,3280.49,600.13,591.34,15.70,0000 0000 0000 0000 000000
2016-04-28 06:16:44,0.06,0.82,0.00,25.91,28.93,31.70,14.23,48.96,1018.23,2028.99,3150.04,2910.30,3279.49,599.65,590.77,15.75,0000 0000 0000 0000 000000
2016-04-28 06:21:45,0.06,0.82,0.00,25.92,28.95,31.72,14.44,49.20,1018.14,2028.99,3148.75,2909.50,3278.49,600.26,591.37,15.80,0000 0000 0000 0000 000000
2016-04-28 06:26:46,0.06,0.82,0.00,25.92,28.95,31.70,14.34,49.12,1018.11,2028.99,3147.42,2908.56,3277.41,599.93,590.80,15.85,0000 0000 0000 0000 000000
2016-04-28 06:31:47,0.04,0.83,0.00,25.95,28.95,31.70,14.37,49.23,1018.09,2028.99,3146.31,2907.86,3276.49,600.08,591.09,15.90,0000 0000 0000 0000 000000
2016-04-28 06:36:49,0.05,0.83,0.00,25.96,28.95,31.73,14.36,49.32,1018.08,2028.99,3145.08,2907.01,3275.49,599.80,590.84,15.95,0000 0000 0000 0000 000000
2016-04-28 06:41:50,0.07,0.83,0.00,25.97,28.96,31.73,14.32,49.00,1018.08,2028.96,3143.70,2906.10,3274.43,600.30,591.34,16.00,0000 0000 0000 0000 000000
2016-04-28 06:46:51,0.06,0.84,0.00,25.96,28.97,31.74,14.32,48.86,1018.08,2028.97,3142.38,2905.17,3273.42,599.94,591.08,16.05,0000 0000 0000 0000 000000
2016-04-28 06:51:53,0.06,0.84,0.00,25.99,28.97,31.74,14.30,49.08,1018.08,2028.96,3141.05,2904.36,3272.41,599.77,590.81,16.10,0000 0000 0000 0000 000000
2016-04-28 06:56:54,0.07,0.84,0.00,26.00,28.97,31.73,14.35,49.05,1018.07,2028.93,3139.64,2903.49,3271.29,600.18,591.04,16.15,0000 0000 0000 0000 000000
2016-04-28 07:01:55,0.06,0.84,0.00,26.00,28.97,31.74,14.27,49.21,1018.05,2028.88,3138.27,2902.50,3270.20,599.76,590.64,16.20,0000 0000 0000 0000 000000
2016-04-28 07:06:57,0.07,0.85,0.00,26.00,28.99,31.74,14.33,49.18,1018.02,2028.84,3136.90,2901.63,3269.11,599.82,590.70,16.25,0000 0000 0000 0000 000000
2016-04-28 07:11:58,0.04,0.85,0.00,26.02,29.00,31.75,14.27,49.04,1018.04,2028.72,3135.59,2900.78,3268.05,600.00,590.87,16.30,0000 0000 0000 0000 000000
2016-04-28 07:16:59,0.06,0.85,0.00,26.04,29.00,31.75,14.35,49.26,1018.07,2028.78,3134.49,2899.97,3267.07,599.71,590.48,16.35,0000 0000 0000 0000 000000
2016-04-28 07:22:01,0.05,0.86,0.00,26.04,29.00,31.77,14.28,49.02,1018.08,2028.71,3133.19,2899.09,3266.09,599.59,590.14,16.40,0000 0000 0000 0000 000000
2016-04-28 07:27:02,0.08,0.86,0.00,26.05,29.00,31.76,14.40,49.12,1018.08,2028.73,3131.91,2898.28,3265.10,600.20,590.98,16.45,0000 0000 0000 0000 000000
2016-04-28 07:32:03,0.04,0.86,0.00,26.06,29.00,31.77,14.38,49.33,1018.08,2028.54,3130.55,2897.37,3264.15,600.05,590.83,16.50,0000 0000 0000 0000 000000
2016-04-28 07:37:04,0.04,0.86,0.00,26.09,29.00,31.77,14.36,49.24,1018.08,2028.43,3129.29,2896.58,3263.16,599.96,590.76,16.55,0000 0000 0000 0000 000000
2016-04-28 07:42:05,0.04,0.87,0.00,26.10,29.00,31.78,14.37,48.94,1018.08,2028.19,3127.97,2895.68,3262.21,600.27,590.88,16.60,0000 0000 0000 0000 000000
2016-04-28 07:47:06,0.05,0.87,0.00,26.10,29.01,31.77,14.30,48.81,1018.08,2028.22,3126.81,2894.95,3261.25,599.57,590.24,16.65,0000 0000 0000 0000 000000
2016-04-28 07:52:08,0.05,0.87,0.00,26.13,29.02,31.78,14.32,48.69,1018.08,2028.16,3125.55,2894.10,3260.26,600.09,590.79,16.70,0000 0000 0000 0000 000000
2016-04-28 07:57:09,0.06,0.87,0.00,26.17,29.02,31.78,14.25,48.73,1018.08,2028.15,3124.42,2893.31,3259.43,599.67,590.21,16.75,0000 0000 0000 0000 000000
2016-04-28 08:02:10,0.05,0.88,0.00,26.17,29.02,31.79,14.34,48.78,1018.08,2028.12,3123.14,2892.47,3258.45,600.34,590.94,16.80,0000 0000 0000 0000 000000
2016-04-28 08:07:11,0.06,0.88,0.00,26.19,29.02,31.78,14.37,48.82,1018.08,2028.04,3121.88,2891.62,3257.41,600.10,590.66,16.85,0000 0000 0000 0000 000000
2016-04-28 08:12:13,0.05,0.88,0.00,26.20,29.04,31.77,14.42,48.77,1018.07,2028.04,3120.68,2890.86,3256.49,600.25,590.72,16.90,0000 0000 0000 0000 000000
2016-04-28 08:17:14,0.06,0.89,0.00,26.22,29.05,31.79,14.39,49.00,1018.01,2028.02,3119.49,2890.01,3255.51,600.21,590.60,16.95,0000 0000 0000 0000 000000
2016-04-28 08:22:15,0.06,0.89,0.00,26.23,29.05,31.80,14.35,49.23,1017.84,2028.01,3118.27,2889.17,3254.55,600.32,590.50,17.00,0000 0000 0000 0000 000000
2016-04-28 08:27:17,0.06,0.89,0.00,26.25,29.05,31.80,14.34,49.23,1017.65,2028.02,3116.95,2888.49,3253.67,600.21,590.44,17.05,0000 0000 0000 0000 000000
2016-04-28 08:32:18,0.07,0.90,0.00,26.25,29.05,31.81,14.34,49.03,1017.61,2028.03,3115.65,2887.57,3252.59,599.98,590.14,17.10,0000 0000 0000 0000 000000
2016-04-28 08:37:19,0.05,0.90,0.00,26.26,29.07,31.82,14.29,48.99,1017.60,2028.00,3114.35,2886.74,3251.64,600.17,590.28,17.15,0000 0000 0000 0000 000000
2016-04-28 08:42:20,0.05,0.90,0.00,26.26,29.07,31.84,14.36,49.22,1017.60,2028.01,3113.12,2885.92,3250.62,599.90,590.08,17.20,0000 0000 0000 0000 000000
2016-04-28 08:47:22,0.06,0.91,0.00,26.24,29.07,31.85,14.26,49.17,1017.61,2028.01,3111.72,2885.04,3249.62,599.94,590.08,17.25,0000 0000 0000 0000 000000
2016-04-28 08:52:23,0.06,0.91,0.00,26.21,29.07,31.84,14.37,49.26,1017.60,2028.00,3110.42,2884.16,3248.58,600.53,590.70,17.30,0000 0000 0000 0000 000000
2016-04-28 08:57:25,0.06,0.91,0.00,26.20,29.07,31.86,14.34,49.19,1017.60,2028.00,3109.01,2883.25,3247.68,600.09,590.35,17.35,0000 0000 0000 0000 000000
2016-04-28 09:02:26,0.07,0.92,0.00,26.22,29.07,31.86,14.34,49.13,1017.59,2028.00,3107.78,2882.43,3246.56,599.92,590.19,17.40,0000 0000 0000 0000 000000
2016-04-28 09:07:27,0.06,0.92,0.00,26.22,29.07,31.87,14.33,49.07,1017.59,2028.00,3106.54,2881.63,3245.56,600.11,590.28,17.45,0000 0000 0000 0000 000000
2016-04-28 09:12:29,0.04,0.92,0.00,26.20,29.07,31.86,14.27,49.04,1017.59,2028.00,3105.41,2880.88,3244.68,599.80,590.03,17.50,0000 0000 0000 0000 000000
2016-04-28 09:17:30,0.06,0.93,0.00,26.18,29.07,31.87,14.30,49.02,1017.59,2028.00,3103.99,2880.01,3243.63,599.73,590.02,17.55,0000 0000 0000 0000 000000
2016-04-28 09:22:32,0.06,0.93,0.00,26.17,29.07,31.87,14.28,48.99,1017.58,2028.00,3102.78,2879.19,3242.77,600.10,590.31,17.60,0000 0000 0000 0000 000000
2016-04-28 09:27:33,0.06,0.93,0.00,26.17,29.07,31.87,14.35,49.11,1017.57,2028.00,3101.49,2878.55,3241.78,599.97,590.12,17.65,0000 0000 0000 0000 000000
2016-04-28 09:32:34,0.04,0.93,0.00,26.15,29.07,31.87,14.32,49.12,1017.47,2028.00,3100.23,2877.89,3240.89,600.27,590.54,17.70,0000 0000 0000 0000 000000
2016-04-28 09:37:35,0.06,0.94,0.00,26.12,29.07,31.88,14.27,49.02,1017.29,2028.00,3099.05,2877.07,3239.95,599.60,589.78,17.75,0000 0000 0000 0000 000000
2016-04-28 09:42:37,0.06,0.94,0.00,26.11,29.07,31.89,14.28,49.08,1017.14,2028.00,3097.73,2876.18,3239.03,599.96,590.14,17.80,0000 0000 0000 0000 000000
2016-04-28 09:47:38,0.06,0.94,0.00,26.11,29.06,31.89,14.33,48.90,1017.13,2028.00,3096.53,2875.53,3238.09,599.57,589.76,17.85,0000 0000 0000 0000 000000
2016-04-28 09:52:39,0.04,0.95,0.00,26.08,29.05,31.88,14.32,49.06,1017.12,2028.00,3095.38,2874.93,3237.23,600.11,590.36,17.90,0000 0000 0000 0000 000000
2016-04-28 09:57:41,0.06,0.95,0.00,26.04,29.05,31.89,14.38,49.25,1017.11,2028.00,3094.20,2874.07,3236.40,600.38,590.69,17.95,0000 0000 0000 0000 000000
2016-04-28 10:02:42,0.06,0.95,0.00,26.04,29.04,31.88,14.36,49.08,1017.10,2028.01,3092.95,2873.24,3235.46,600.09,590.28,18.00,0000 0000 0000 0000 000000
2016-04-28 10:07:43,0.05,0.95,0.00,26.01,29.02,31.87,14.30,49.03,1017.09,2028.01,3091.79,2872.54,3234.54,599.50,589.91,18.06,0000 0000 0000 0000 000000
2016-04-28 10:12:44,0.04,0.96,0.00,25.99,29.02,31.87,14.31,48.98,1017.06,2028.01,3090.55,2871.89,3233.60,600.23,590.62,18.11,0000 0000 0000 0000 000000
2016-04-28 10:17:45,0.05,0.96,0.00,25.97,29.00,31.85,14.36,48.89,1016.91,2028.01,3089.35,2871.06,3232.84,600.08,590.35,18.16,0000 0000 0000 0000 000000
2016-04-28 10:22:47,0.06,0.96,0.00,25.97,29.00,31.85,14.40,49.01,1016.73,2028.02,3088.17,2870.32,3231.90,600.44,590.63,18.21,0000 0000 0000 0000 000000
2016-04-28 10:27:48,0.05,0.97,0.00,25.95,28.99,31.85,14.32,48.96,1016.63,2028.04,3086.93,2869.60,3231.02,600.14,590.43,18.26,0000 0000 0000 0000 000000
2016-04-28 10:32:49,0.04,0.97,0.00,25.91,28.97,31.85,14.33,49.04,1016.63,2028.06,3085.80,2868.94,3230.13,599.80,590.04,18.31,0000 0000 0000 0000 000000
2016-04-28 10:37:51,0.06,0.97,0.00,25.90,28.97,31.85,14.35,49.22,1016.62,2028.09,3084.59,2868.09,3229.22,600.18,590.37,18.36,0000 0000 0000 0000 000000
2016-04-28 10:42:52,0.07,0.98,0.00,25.88,28.95,31.86,14.31,48.98,1016.62,2028.15,3083.39,2867.36,3228.40,600.11,590.20,18.41,0000 0000 0000 0000 000000
2016-04-28 10:47:53,0.05,0.98,0.00,25.87,28.95,31.84,14.39,49.02,1016.62,2028.22,3082.51,2866.83,3227.67,600.47,590.76,18.46,0000 0000 0000 0000 000000
2016-04-28 10:52:54,0.05,0.98,0.00,25.84,28.94,31.81,14.26,48.85,1016.62,2028.36,3081.51,2866.06,3226.91,599.84,590.22,18.51,0000 0000 0000 0000 000000
2016-04-28 10:57:56,0.08,0.99,0.00,25.84,28.92,31.82,14.42,49.27,1016.62,2028.59,3080.41,2865.39,3226.02,600.42,590.79,18.56,0000 0000 0000 0000 000000
2016-04-28 11:02:57,0.06,0.99,0.00,25.84,28.92,31.80,14.30,48.98,1016.58,2028.66,3079.24,2864.77,3225.14,599.62,589.89,18.61,0000 0000 0000 0000 000000
2016-04-28 11:07:58,0.06,0.99,0.00,25.82,28.91,31.80,14.38,49.10,1016.60,2028.85,3078.05,2864.03,3224.35,600.64,591.08,18.66,0000 0000 0000 0000 000000
2016-04-28 11:13:00,0.06,1.00,0.00,25.79,28.90,31.80,14.34,49.08,1016.62,2028.91,3076.89,2863.27,3223.54,600.12,590.57,18.71,0000 0000 0000 0000 000000
2016-04-28 11:18:01,0.05,1.00,0.00,25.77,28.90,31.79,14.29,49.03,1016.60,2028.95,3075.81,2862.65,3222.76,599.73,590.18,18.76,0000 0000 0000 0000 000000
2016-04-28 11:23:02,0.04,1.00,0.00,25.76,28.89,31.78,14.35,49.38,1016.50,2028.95,3074.72,2861.92,3221.90,600.13,590.30,18.81,0000 0000 0000 0000 000000
2016-04-28 11:28:03,0.06,1.00,0.00,25.74,28.87,31.77,14.38,49.31,1016.40,2028.97,3073.57,2861.09,3221.06,599.83,590.37,18.86,0000 0000 0000 0000 000000
2016-04-28 11:33:05,0.05,1.01,0.00,25.72,28.87,31.75,14.42,49.38,1016.39,2028.99,3072.54,2860.49,3220.23,599.95,590.43,18.91,0000 0000 0000 0000 000000
2016-04-28 11:38:06,0.04,1.01,0.00,25.72,28.87,31.75,14.28,49.30,1016.21,2028.98,3071.42,2859.82,3219.41,599.63,589.90,18.96,0000 0000 0000 0000 000000
2016-04-28 11:43:07,0.05,1.01,0.00,25.70,28.85,31.74,14.31,49.31,1016.16,2028.98,3070.40,2859.04,3218.55,599.83,590.18,19.01,0000 0000 0000 0000 000000
2016-04-28 11:48:08,0.05,1.01,0.00,25.67,28.85,31.72,14.33,49.13,1016.15,2028.99,3069.34,2858.37,3217.82,599.52,590.10,19.06,0000 0000 0000 0000 000000
2016-04-28 11:53:10,0.05,1.02,0.00,25.67,28.85,31.70,14.33,49.22,1016.14,2028.99,3068.28,2857.72,3216.94,599.78,590.22,19.11,0000 0000 0000 0000 000000
2016-04-28 11:58:11,0.04,1.02,0.00,25.66,28.85,31.70,14.33,49.35,1016.13,2028.99,3067.22,2857.01,3216.08,600.13,590.68,19.16,0000 0000 0000 0000 000000
2016-04-28 12:03:12,0.06,1.02,0.00,25.63,28.83,31.69,14.34,49.22,1016.13,2028.99,3066.12,2856.29,3215.27,600.01,590.60,19.21,0000 0000 0000 0000 000000
2016-04-28 12:08:14,0.05,1.02,0.00,25.62,28.82,31.68,14.39,49.15,1016.13,2028.99,3065.00,2855.69,3214.49,599.87,590.40,19.26,0000 0000 0000 0000 000000
2016-04-28 12:13:15,0.05,1.03,0.00,25.61,28.82,31.68,14.41,49.00,1016.13,2028.99,3063.82,2854.91,3213.56,600.10,590.65,19.31,0000 0000 0000 0000 000000
2016-04-28 12:18:16,0.05,1.03,0.00,25.58,28.82,31.69,14.38,49.16,1016.13,2028.99,3062.81,2854.08,3212.81,599.86,590.48,19.36,0000 0000 0000 0000 000000
2016-04-28 12:23:18,0.05,1.03,0.00,25.57,28.80,31.67,14.38,49.18,1016.13,2028.99,3061.69,2853.53,3212.00,599.91,590.57,19.41,0000 0000 0000 0000 000000
2016-04-28 12:28:19,0.05,1.04,0.00,25.56,28.80,31.67,14.38,49.19,1016.13,2028.99,3060.51,2852.85,3211.13,600.06,590.73,19.46,0000 0000 0000 0000 000000
2016-04-28 12:33:20,0.06,1.04,0.00,25.54,28.80,31.65,14.36,49.18,1016.09,2028.99,3059.36,2852.04,3210.25,600.22,590.84,19.51,0000 0000 0000 0000 000000
2016-04-28 12:38:22,0.05,1.04,0.00,25.53,28.79,31.65,14.36,49.16,1015.99,2028.99,3058.24,2851.38,3209.54,600.12,590.61,19.56,0000 0000 0000 0000 000000
2016-04-28 12:43:23,0.05,1.04,0.00,25.54,28.77,31.64,14.34,49.32,1015.94,2028.99,3057.00,2850.75,3208.69,599.75,590.34,19.61,0000 0000 0000 0000 000000
2016-04-28 12:48:25,0.04,1.05,0.00,25.51,28.77,31.64,14.36,49.19,1015.90,2029.02,3055.94,2850.02,3207.89,599.75,590.36,19.66,0000 0000 0000 0000 000000
2016-04-28 12:53:26,0.05,1.05,0.00,25.49,28.76,31.62,14.34,49.27,1015.75,2029.02,3055.12,2849.32,3207.05,599.74,590.30,19.71,0000 0000 0000 0000 000000